[[{"header":{"parameterUnit":"m.s-1","parameterCategory":1,"la1":30.2991,"la2":30.254,"lo1":-89.0895,"lo2":-89.0444,"dy":0.0017,"dx":0.0017,"nx":28,"ny":28,"refTime":"2023-08-22T09:00:00:Z","depth":0,"parameterNumber":2,"parameterNumberName":"U-component_of_WINDS"},"data":[0,0,0,0,0,0,0,0,0,0,0,0,0,0,0,0,0,0,0,0,0,0,0,0,0,0,0,0,0,0,0,0,0,0,0,0,0,0,0,0,0,0,0,0,0,0,0,0,0,0,0,0,0,0,0,0,0,0,-4.4158,-4.4158,0,-4.4181,-4.4181,-4.4181,-4.4097,-4.4094,-4.4092,-4.409,-4.4111,-4.4114,-4.4116,0,0,0,0,0,0,0,0,0,0,0,0,0,-4.4041,-4.4043,-4.4158,-4.4158,-4.4159,-4.4181,-4.4181,-4.4181,-4.4097,-4.4094,-4.4091,-4.4088,-4.411,-4.4113,-4.4117,0,0,0,0,0,0,0,0,0,0,0,0,0,-4.408,-4.4044,-4.4158,-4.412,-4.4116,-4.4181,-4.4181,-4.4181,-4.4098,-4.4094,-4.409,-4.4087,-4.4109,-4.4113,-4.4117,-4.4219,0,0,-4.413,-4.4132,0,0,0,0,0,0,0,0,-4.4078,-4.4085,-4.4125,-4.4122,-4.4119,-4.4132,-4.4147,-4.4194,-4.4099,-4.4105,-4.4089,-4.4085,-4.4121,-4.4124,-4.4136,-4.422,-4.4221,-4.4131,-4.4133,-4.4135,-4.4137,0,0,0,0,0,0,0,-4.4076,-4.4083,-4.4167,-4.4126,-4.4122,-4.41,-4.4102,-4.4156,-4.4134,-4.4104,-4.4098,-4.4102,-4.4118,-4.4132,-4.4136,-4.4221,-4.4131,-4.4135,-4.4137,-4.4139,-4.4389,-4.4393,0,0,0,0,0,0,-4.4078,-4.4082,-4.4166,-4.4168,-4.4089,-4.4106,-4.4107,-4.4132,-4.4133,-4.4129,-4.4105,-4.4098,-4.4127,-4.4131,-4.4137,-4.4254,-4.4135,-4.4139,-4.4142,-4.4385,-4.439,-4.4394,0,0,0,0,0,0,-4.4076,-4.4086,-4.4165,-4.4123,-4.4131,-4.4112,-4.414,-4.4134,-4.4148,-4.4134,-4.4129,-4.4124,-4.4124,-4.413,-4.4199,-4.4254,-4.4141,-4.4145,-4.438,-4.4386,-4.4392,-4.4492,0,0,0,0,0,0,-4.4073,-4.4086,-4.4125,-4.4125,-4.4134,-4.4228,-4.4143,-4.4137,-4.4156,-4.4147,-4.415,-4.4146,-4.4122,-4.4193,-4.4203,-4.4258,-4.4149,-4.4375,-4.4383,-4.439,-4.4484,-4.4501,-4.4516,0,0,0,0,0,-4.4069,-4.4152,-4.4127,-4.4138,-4.4182,-4.4232,-4.4237,-4.4207,-4.4161,-4.4199,-4.419,-4.4146,-4.4247,-4.4201,-4.4212,-4.4269,-4.4371,-4.4381,-4.4389,-4.4477,-4.4498,-4.4515,0,0,0,0,0,0,-4.4159,-4.4151,-4.4124,-4.421,-4.4222,-4.4217,-4.4265,-4.423,-4.4255,-4.4246,-4.4207,-4.4209,-4.4284,-4.4283,-4.4232,-4.4367,-4.4301,-4.4313,-4.4364,-4.4384,-4.4399,-4.4396,-4.4152,0,0,0,0,0,-4.4189,-4.423,-4.4221,-4.4298,-4.4306,-4.4285,-4.4305,-4.4281,-4.4292,-4.4296,-4.4292,-4.4304,-4.4338,-4.4361,-4.4392,-4.4485,-4.4483,-4.4529,-4.4545,-4.4558,-4.4568,-4.4615,-4.4635,-4.4424,-4.4424,-4.4424,0,0,-4.4251,-4.4252,-4.428,-4.4316,-4.4323,-4.4365,-4.4289,-4.4338,-4.4369,-4.4303,-4.4367,-4.4366,-4.4376,-4.4457,-4.4492,-4.4459,-4.4627,-4.457,-4.458,-4.4583,-4.4627,-4.4647,-4.4665,-4.443,-4.4429,-4.4428,0,0,-4.4385,-4.4391,-4.4454,-4.4463,-4.4475,-4.446,-4.4476,-4.4477,-4.4473,-4.4537,-4.4488,-4.4525,-4.4585,-4.4594,-4.4607,-4.4746,-4.4706,-4.4757,-4.4839,-4.4886,-4.4902,-4.4917,-4.4965,-4.4982,-4.4767,-4.4768,-4.4768,0,-4.446,-4.4523,-4.4491,-4.4543,-4.456,-4.4504,-4.4568,-4.4577,-4.4598,-4.4611,-4.4574,-4.4647,-4.4651,-4.4732,-4.4766,-4.4779,-4.4795,-4.4755,-4.4903,-4.4917,-4.493,-4.4975,-4.4993,-4.4774,-4.4773,-4.4772,-4.4772,0,-4.4614,-4.4658,-4.4708,-4.473,-4.4753,-4.4811,-4.4787,-4.4814,-4.4789,-4.4778,-4.4844,-4.4846,-4.4876,-4.4894,-4.487,-4.4972,-4.4951,-4.4909,-4.4842,-4.4957,-4.4998,-4.5015,-4.4782,-4.478,-4.4778,-4.4777,0,0,-4.4803,-4.4808,-4.4826,-4.4835,-4.4844,-4.4878,-4.4933,-4.4963,-4.4985,-4.5002,-4.5046,-4.5099,-4.5061,-4.5075,-4.5052,-4.5093,-4.5201,-4.5046,-4.5045,-4.5073,-4.5312,-4.5342,-4.5362,-4.5176,-4.5179,-4.5182,-4.5311,0,-4.4933,-4.5027,-4.5001,-4.5095,-4.5134,-4.5083,-4.513,-4.5141,-4.5133,-4.5166,-4.5157,-4.5194,-4.5141,-4.5149,-4.5188,-4.518,-4.5248,-4.517,-4.5215,-4.5217,-4.5211,-4.5384,-4.5416,-4.5537,-4.5327,-4.533,-4.5332,0,-4.5097,-4.512,-4.5218,-4.522,-4.5236,-4.528,-4.5304,-4.5337,-4.5347,-4.5339,-4.5356,-4.5324,-4.5377,-4.5312,-4.5384,-4.5332,-4.5349,-4.5348,-4.5352,-4.5353,-4.5279,-4.5388,-4.5575,-4.5593,-4.5357,-4.5355,-4.5353,0,-4.5222,-4.5279,-4.5344,-4.5354,-4.5358,-4.539,-4.5393,-4.5401,-4.542,-4.5442,-4.5454,-4.5482,-4.5497,-4.552,-4.5496,-4.5451,-4.5571,-4.5504,-4.5564,-4.5565,-4.559,-4.5588,-4.578,-4.5605,-4.5605,-4.5605,-4.5604,0,-4.5369,-4.543,-4.5401,-4.5441,-4.5508,-4.5477,-4.5544,-4.5542,-4.5549,-4.5587,-4.5545,-4.5582,-4.5549,-4.5583,-4.5565,-4.5627,-4.5635,-4.5628,-4.5622,-4.563,-4.5631,-4.5639,-4.5629,-4.5609,-4.5608,-4.5607,-4.5607,0,-4.5519,-4.5502,-4.557,-4.5569,-4.557,-4.562,-4.5619,-4.5655,-4.5645,-4.5694,-4.5704,-4.5687,-4.5725,-4.5704,-4.5743,-4.5731,-4.581,-4.5794,-4.5807,-4.5801,-4.5862,-4.5855,-4.6064,-4.6089,-4.59,-4.5902,-4.5903,0,-4.5613,-4.5659,-4.5663,-4.5686,-4.5692,-4.573,-4.5749,-4.5721,-4.5744,-4.576,-4.5794,-4.5828,-4.5854,-4.5916,-4.5907,-4.5936,-4.5919,-4.599,-4.5923,-4.593,-4.5918,-4.5914,-4.5918,-4.6003,-4.6005,-4.6007,-4.6009,0,-4.578,-4.5769,-4.58,-4.5827,-4.5852,-4.5873,-4.5889,-4.591,-4.5883,-4.591,-4.5948,-4.5968,-4.6007,-4.6041,-4.6066,-4.6069,-4.6034,-4.603,-4.6045,-4.6053,-4.6058,-4.6054,-4.5841,-4.6025,-4.6023,-4.6022,-4.6021,-4.6021,-4.5903,-4.5941,-4.595,-4.5985,-4.5995,-4.6012,-4.6046,-4.604,-4.6072,-4.6102,-4.6084,-4.6128,-4.6138,-4.6168,-4.6175,-4.6209,-4.618,-4.6203,-4.6208,-4.6213,-4.6221,-4.6055,-4.6214,-4.6213,-4.6213,-4.6213,-4.6212,0,-4.6066,-4.607,-4.6103,-4.6127,-4.6155,-4.6121,-4.6138,-4.6163,-4.6203,-4.6215,-4.6241,-4.6284,-4.6317,-4.6312,-4.6341,-4.6369,-4.6354,-4.6378,-4.6374,-4.6375,-4.6245,-4.6229,-4.639,-4.639,-4.639,-4.639,-4.639,-4.639,-4.6154,-4.6217,-4.6207,-4.6274,-4.6276,-4.632,-4.6332,-4.6347,-4.6356,-4.6407,-4.6434,-4.6431,-4.6435,-4.6465,-4.6493,-4.6491,-4.6503,-4.6532,-4.6524,-4.6402,-4.6385,-4.6368,-4.6351,-4.6536,-4.6536,-4.665,-4.6651,-4.6652]},{"header":{"parameterUnit":"m.s-1","parameterCategory":1,"la1":30.2991,"la2":30.254,"lo1":-89.0895,"lo2":-89.0444,"dy":0.0017,"dx":0.0017,"nx":28,"ny":28,"refTime":"2023-08-22T09:00:00:Z","depth":0,"parameterNumber":3,"parameterNumberName":"V-component_of_WINDS"},"data":[0,0,0,0,0,0,0,0,0,0,0,0,0,0,0,0,0,0,0,0,0,0,0,0,0,0,0,0,0,0,0,0,0,0,0,0,0,0,0,0,0,0,0,0,0,0,0,0,0,0,0,0,0,0,0,0,0,0,2.9913,2.9913,0,2.997,2.9971,2.9971,2.9971,2.9971,2.997,2.9969,3.0023,3.0025,3.0027,0,0,0,0,0,0,0,0,0,0,0,0,0,2.9798,2.9801,2.9913,2.9913,2.9914,2.997,2.9971,2.9972,2.9971,2.9971,2.997,2.9969,3.0022,3.0024,3.0027,0,0,0,0,0,0,0,0,0,0,0,0,0,2.9851,2.9801,2.9913,2.9921,2.9922,2.997,2.9971,2.9972,2.9972,2.9971,2.9969,2.9968,3.0021,3.0024,3.0027,3.0069,0,0,3.0037,3.0038,0,0,0,0,0,0,0,0,2.9848,2.9855,2.9919,2.9921,2.9922,2.9963,2.995,3.0004,2.9972,2.9953,2.9969,2.9968,3.0003,3.0008,3.0021,3.0071,3.0074,3.0037,3.0039,3.004,3.0041,0,0,0,0,0,0,0,2.9844,2.9853,2.9935,2.992,2.9922,2.992,2.9927,2.996,2.9983,2.9954,2.9955,2.9962,3.0004,3.0018,3.0022,3.0074,3.0037,3.004,3.0042,3.0043,3.0162,3.0163,0,0,0,0,0,0,2.984,2.985,2.9933,2.9937,2.9882,2.9923,2.993,2.9951,2.9983,2.9987,2.9962,2.9961,3.0013,3.0018,3.0024,3.0074,3.004,3.0043,3.0045,3.016,3.0162,3.0163,0,0,0,0,0,0,2.9837,2.9847,2.9931,2.9894,2.9904,2.9927,2.9949,2.9952,2.9966,2.9989,2.9993,2.9973,3.0012,3.0019,3.0058,3.0076,3.0045,3.0048,3.0159,3.0161,3.0163,3.0175,0,0,0,0,0,0,2.9834,2.9846,2.9863,2.9894,2.9906,2.9966,2.995,2.9954,2.9972,2.9971,3.0,3.0003,3.0012,3.0053,3.0061,3.008,3.005,3.0157,3.016,3.0162,3.0173,3.0178,3.0181,0,0,0,0,0,2.983,2.9863,2.9864,2.9874,2.9928,2.9967,2.9973,2.9984,2.9974,2.999,3.0005,3.0002,3.0073,3.0057,3.0066,3.0086,3.0156,3.0159,3.0162,3.0172,3.0177,3.0181,0,0,0,0,0,0,2.9832,2.9867,2.9869,2.9913,2.9937,2.9967,2.9987,2.9989,3.0015,3.0013,3.0023,3.003,3.0068,3.0081,3.0063,3.0128,3.0113,3.0118,3.0118,3.0123,3.0126,3.0122,3.0053,0,0,0,0,0,2.9838,2.9868,2.9897,2.9933,2.9946,2.9965,2.9982,2.9988,3.0013,3.0022,3.004,3.0062,3.009,3.0107,3.0133,3.0176,3.0182,3.0194,3.0198,3.0201,3.0204,3.0227,3.0233,3.0173,3.0173,3.0173,0,0,2.9849,2.9873,2.9891,2.9934,2.9954,2.9983,2.9973,3.0004,3.0026,3.0026,3.0064,3.0078,3.0104,3.0145,3.0163,3.0156,3.0223,3.0205,3.0207,3.0209,3.0231,3.0237,3.0242,3.0175,3.0174,3.0174,0,0,2.9886,2.9907,2.994,2.996,2.9991,3.0003,3.0011,3.0041,3.0051,3.009,3.0091,3.0116,3.0163,3.0181,3.0197,3.0242,3.024,3.025,3.0269,3.0292,3.0297,3.0301,3.0316,3.0322,3.0254,3.0254,3.0254,0,2.9896,2.9942,2.9956,2.9988,3.0007,3.0012,3.0044,3.0062,3.0099,3.0111,3.0104,3.0164,3.0181,3.0226,3.0237,3.025,3.0258,3.0246,3.0295,3.03,3.0304,3.0318,3.0324,3.0255,3.0255,3.0255,3.0255,0,2.9953,2.9985,3.0007,3.0045,3.0066,3.0098,3.0116,3.0136,3.0141,3.0154,3.0193,3.0215,3.0246,3.0258,3.0262,3.0304,3.0298,3.0293,3.0278,3.031,3.0324,3.033,3.0256,3.0256,3.0256,3.0256,0,0,2.9989,3.0036,3.0044,3.0061,3.0096,3.012,3.0152,3.0185,3.0201,3.0227,3.0253,3.0294,3.0289,3.0307,3.0314,3.0334,3.0368,3.0326,3.0327,3.0332,3.0414,3.0416,3.0423,3.0368,3.0369,3.037,3.0411,0,3.0029,3.0088,3.0102,3.0152,3.0181,3.0187,3.0215,3.0238,3.0252,3.0278,3.0292,3.0321,3.0313,3.0324,3.0344,3.0359,3.0384,3.0357,3.039,3.0391,3.0382,3.043,3.0433,3.0471,3.0417,3.0418,3.0418,0,3.0082,3.0111,3.0164,3.0196,3.0209,3.0234,3.0265,3.029,3.0317,3.0325,3.0346,3.0351,3.0384,3.0369,3.0413,3.0394,3.0409,3.0419,3.0421,3.0423,3.0405,3.0432,3.0483,3.0489,3.0427,3.0426,3.0426,0,3.0102,3.0154,3.0193,3.0208,3.0246,3.0264,3.028,3.0306,3.0325,3.0351,3.0364,3.0393,3.0409,3.0431,3.0444,3.0433,3.0487,3.0474,3.0494,3.0493,3.0503,3.0502,3.0556,3.0515,3.0515,3.0515,3.0515,0,3.0143,3.0175,3.0203,3.0227,3.0263,3.0279,3.0313,3.0329,3.0353,3.0379,3.0385,3.0409,3.0425,3.0451,3.0461,3.0496,3.0503,3.051,3.0512,3.0508,3.0507,3.0517,3.0514,3.0517,3.0516,3.0516,3.0516,0,3.0171,3.0191,3.0234,3.0267,3.0277,3.0302,3.0329,3.0352,3.0367,3.04,3.0408,3.043,3.0461,3.0477,3.0515,3.0522,3.056,3.0561,3.0552,3.0552,3.0571,3.0569,3.0632,3.0641,3.0595,3.0596,3.0596,0,3.0195,3.0221,3.0258,3.0277,3.0294,3.0324,3.0344,3.0361,3.0381,3.0414,3.0433,3.0464,3.049,3.0539,3.0558,3.0587,3.0588,3.0608,3.0592,3.0588,3.0587,3.0584,3.0587,3.061,3.0611,3.0611,3.0611,0,3.0236,3.0245,3.0275,3.0308,3.0332,3.0359,3.0385,3.0399,3.042,3.0442,3.0475,3.0496,3.0536,3.0567,3.0598,3.0613,3.0615,3.0617,3.0623,3.0618,3.0611,3.0614,3.0558,3.0614,3.0614,3.0614,3.0614,3.0614,3.0262,3.0285,3.0315,3.0348,3.037,3.0394,3.0417,3.0436,3.0464,3.0499,3.0507,3.0542,3.0568,3.061,3.0627,3.0653,3.0648,3.0657,3.0659,3.066,3.0661,3.0609,3.0658,3.0658,3.0658,3.0658,3.0658,0,3.0302,3.0322,3.0353,3.039,3.0416,3.0419,3.0448,3.0468,3.0499,3.0525,3.0551,3.0589,3.0619,3.0641,3.0672,3.0688,3.069,3.0696,3.0694,3.0697,3.0664,3.0655,3.0694,3.0694,3.0694,3.0694,3.0694,3.0694,3.0326,3.0365,3.0377,3.0427,3.0447,3.0482,3.0498,3.0521,3.0541,3.0583,3.061,3.0625,3.0648,3.0681,3.0709,3.0715,3.0725,3.073,3.0736,3.0703,3.0699,3.0696,3.0688,3.0733,3.0733,3.0767,3.0767,3.0767]}]]